Weather History for KFSD - October, 2011

Change the Weather History Date:

Friday, October 14, 2011

  Actual Average Record
Temperature  
Mean Temperature 49 °F 49 °F  
Max Temperature 59 °F 61 °F 88 °F (1958)
Min Temperature 39 °F 37 °F 19 °F (1937)
Degree Days  
Heating Degree Days 16 16  
Month to date heating degree days 40 193  
Since 1 July heating degree days 239 397  
Cooling Degree Days 0 0  
Month to date cooling degree days 37 0  
Year to date cooling degree days 807 685  
Moisture  
Dew Point 36 °F    
Average Humidity 61    
Maximum Humidity 82    
Minimum Humidity 39    
Precipitation  
Precipitation 0.00 in 0.08 in 2.27 in (2013)
Month to date precipitation 0.63 1.17  
Year to date precipitation 23.62 23.33  
Snow  
Snow 0.00 in 0.00 in 0.40 in (1966)
Month to date snowfall 0.0 0.2  
Since 1 July snowfall 0.0 0.2  
Since 1 September snowfall 0.0 0.2  
Snow Depth 0.00 in    
Sea Level Pressure  
Sea Level Pressure 29.91 in    
Wind  
Wind Speed 14 mph (WNW)    
Max Wind Speed 30 mph    
Max Gust Speed 39 mph    
Visibility 10 miles    
Events      
T = Trace of Precipitation, MM = Missing Value Source: NWS Daily Summary

Daily Weather History Graph

Daily Weather History Graph

Search for Another Location

Airport or City:

Trip Planner

Search our weather history database for the weather conditions in past years. The results will help you decide how hot, cold, wet, or windy it might be!

Date:

Astronomy

Oct. 14, 2011 Rise Set
Actual Time 7:39 AM CDT 6:45 PM CDT
Civil Twilight 7:10 AM CDT 7:14 PM CDT
Nautical Twilight 6:37 AM CDT 7:47 PM CDT
Astronomical Twilight 6:04 AM CDT 8:20 PM CDT
Moon 7:53 PM CDT (10/14) 10:15 AM CDT (10/14)
Length of Visible Light 12h 03m
Length of Day
11h 06m
Waning Gibbous, 94% of the Moon is Illuminated
Oct 14
Waning Gibbous
Oct 19
Last Quarter
Oct 26
New
Nov 2
First Quarter
Nov 10
Full

Hourly Weather History & Observations

Time (CDT) Temp. Windchill Dew Point Humidity Pressure Visibility Wind Dir Wind Speed Gust Speed Precip Events Conditions
12:56 AM 46.0 °F 42.5 °F 37.0 °F 71% 29.81 in 10.0 mi West 6.9 mph - N/A   Clear
1:56 AM 46.0 °F 42.5 °F 37.9 °F 73% 29.82 in 10.0 mi West 6.9 mph - N/A   Clear
2:56 AM 44.1 °F 40.1 °F 37.9 °F 79% 29.83 in 10.0 mi WNW 6.9 mph - N/A   Clear
3:56 AM 45.0 °F 39.7 °F 37.9 °F 76% 29.83 in 10.0 mi WNW 10.4 mph 16.1 mph N/A   Clear
4:56 AM 44.1 °F 38.1 °F 37.9 °F 79% 29.84 in 10.0 mi NW 11.5 mph - N/A   Clear
5:56 AM 44.1 °F 40.1 °F 37.9 °F 79% 29.85 in 10.0 mi West 6.9 mph - N/A   Clear
6:56 AM 43.0 °F 38.2 °F 37.9 °F 82% 29.88 in 10.0 mi WNW 8.1 mph - N/A   Partly Cloudy
7:56 AM 45.0 °F 37.9 °F 37.9 °F 76% 29.88 in 10.0 mi NW 16.1 mph 23.0 mph N/A   Partly Cloudy
8:56 AM 46.9 °F - 39.0 °F 74% 29.89 in 10.0 mi NW 16.1 mph 23.0 mph N/A   Clear
9:56 AM 50.0 °F - 39.0 °F 66% 29.91 in 10.0 mi NW 17.3 mph 26.5 mph N/A   Partly Cloudy
10:56 AM 54.0 °F - 37.0 °F 53% 29.91 in 10.0 mi NW 25.3 mph 33.4 mph N/A   Partly Cloudy
11:56 AM 55.9 °F - 36.0 °F 47% 29.92 in 10.0 mi NW 21.9 mph 34.5 mph N/A   Scattered Clouds
12:56 PM 57.9 °F - 32.0 °F 37% 29.92 in 10.0 mi WNW 21.9 mph 31.1 mph N/A   Scattered Clouds
1:56 PM 57.9 °F - 34.0 °F 41% 29.91 in 10.0 mi NW 26.5 mph 36.8 mph N/A   Scattered Clouds
2:56 PM 57.0 °F - 35.1 °F 44% 29.92 in 10.0 mi NW 25.3 mph 36.8 mph N/A   Scattered Clouds
3:56 PM 54.0 °F - 36.0 °F 51% 29.94 in 10.0 mi NW 25.3 mph 35.7 mph N/A   Mostly Cloudy
4:56 PM 54.0 °F - 35.1 °F 49% 29.95 in 10.0 mi NW 20.7 mph 29.9 mph N/A   Mostly Cloudy
5:56 PM 53.1 °F - 35.1 °F 50% 29.96 in 10.0 mi NW 17.3 mph 25.3 mph N/A   Mostly Cloudy
6:56 PM 52.0 °F - 35.1 °F 53% 29.98 in 10.0 mi NW 13.8 mph - N/A   Mostly Cloudy
7:56 PM 50.0 °F - 35.6 °F 58% 29.97 in 10.0 mi WNW 8.1 mph - N/A   Scattered Clouds
8:56 PM 46.0 °F 43.1 °F 36.0 °F 68% 30.00 in 10.0 mi WNW 5.8 mph - N/A   Partly Cloudy
9:56 PM 44.1 °F 41.5 °F 35.1 °F 71% 30.01 in 10.0 mi West 4.6 mph - N/A   Clear
10:56 PM 42.1 °F 37.7 °F 35.1 °F 76% 30.00 in 10.0 mi West 6.9 mph - N/A   Clear
11:56 PM 41.0 °F 39.0 °F 35.1 °F 79% 29.99 in 10.0 mi WSW 3.5 mph - N/A   Clear